[[{"header":{"parameterUnit":"m.s-1","parameterCategory":1,"la1":30.2991,"la2":30.254,"lo1":-89.0895,"lo2":-89.0444,"dy":0.0017,"dx":0.0017,"nx":28,"ny":28,"refTime":"2024-11-22T03:00:00:Z","depth":0,"parameterNumber":2,"parameterNumberName":"U-component_of_WINDS"},"data":[0,0,0,0,0,0,0,0,0,0,0,0,0,0,0,0,0,0,0,0,0,0,0,0,0,0,0,0,0,0,0,0,0,0,0,0,0,0,0,0,0,0,0,0,0,0,0,0,0,0,0,0,0,0,0,0,0,0,2.9214,2.9215,0,2.9271,2.9271,2.9272,2.9231,2.923,2.9228,2.9226,2.9283,2.9286,2.9289,0,0,0,0,0,0,0,0,0,0,0,0,0,2.907,2.9073,2.9214,2.9215,2.9215,2.9271,2.9271,2.9272,2.9232,2.9229,2.9227,2.9225,2.9282,2.9286,2.929,0,0,0,0,0,0,0,0,0,0,0,0,0,2.913,2.9074,2.9214,2.9202,2.9201,2.927,2.9271,2.9272,2.9232,2.9229,2.9227,2.9224,2.9281,2.9285,2.929,2.9374,0,0,2.9305,2.9307,0,0,0,0,0,0,0,0,2.9127,2.9136,2.9203,2.9203,2.9202,2.9241,2.9241,2.9306,2.9233,2.922,2.9226,2.9223,2.9271,2.9277,2.9293,2.9376,2.9379,2.9305,2.9308,2.931,2.9312,0,0,0,0,0,0,0,2.9123,2.9133,2.9236,2.9204,2.9204,2.9193,2.9199,2.9254,2.926,2.9221,2.9218,2.9226,2.9271,2.9289,2.9294,2.938,2.9305,2.9309,2.9312,2.9314,2.9534,2.9537,0,0,0,0,0,0,2.912,2.913,2.9234,2.9238,2.9157,2.9198,2.9204,2.9231,2.926,2.9261,2.9228,2.9224,2.9282,2.9289,2.9296,2.9395,2.931,2.9315,2.9317,2.9531,2.9535,2.9538,0,0,0,0,0,0,2.9117,2.9129,2.9232,2.9183,2.9195,2.9204,2.9234,2.9234,2.9252,2.9265,2.9266,2.9245,2.928,2.9289,2.9355,2.9397,2.9317,2.9321,2.9528,2.9532,2.9536,2.9595,0,0,0,0,0,0,2.9113,2.9129,2.9161,2.9184,2.9198,2.929,2.9237,2.9237,2.926,2.9255,2.9281,2.9283,2.9279,2.9348,2.936,2.9402,2.9325,2.9524,2.953,2.9535,2.9589,2.9601,2.9611,0,0,0,0,0,2.9108,2.9175,2.9162,2.9175,2.9238,2.9293,2.9301,2.9295,2.9264,2.9296,2.9304,2.9282,2.9391,2.9355,2.9368,2.9412,2.9521,2.9528,2.9535,2.9584,2.9598,2.961,0,0,0,0,0,0,2.9155,2.9177,2.9164,2.9241,2.9265,2.9286,2.9326,2.931,2.9343,2.9337,2.9328,2.9334,2.9403,2.9414,2.9374,2.9494,2.9451,2.9461,2.9484,2.9498,2.9508,2.9504,2.9329,0,0,0,0,0,2.9175,2.9217,2.9234,2.93,2.9313,2.9318,2.9341,2.9335,2.9359,2.937,2.9382,2.9407,2.9447,2.9473,2.951,2.9591,2.9596,2.9628,2.9639,2.9647,2.9655,2.9698,2.9713,2.956,2.956,2.956,0,0,2.9215,2.9232,2.926,2.931,2.9328,2.9372,2.9327,2.9375,2.9407,2.9377,2.9439,2.945,2.9477,2.955,2.9583,2.9562,2.9699,2.9656,2.9663,2.9666,2.9707,2.9721,2.9734,2.9565,2.9564,2.9563,0,0,2.9311,2.9329,2.9385,2.9405,2.9433,2.9436,2.9449,2.9473,2.9479,2.9542,2.9519,2.9558,2.9627,2.9647,2.9666,2.977,2.9751,2.9783,2.9838,2.988,2.9892,2.9903,2.9939,2.9953,2.9791,2.9791,2.9791,0,2.9357,2.9423,2.9416,2.9466,2.9489,2.9464,2.9521,2.954,2.9579,2.9595,2.9571,2.9657,2.9673,2.9751,2.9776,2.9793,2.9808,2.9779,2.9891,2.9902,2.9912,2.9946,2.996,2.9795,2.9794,2.9794,2.9794,0,2.9478,2.9524,2.9566,2.9605,2.9632,2.9686,2.9687,2.9716,2.9707,2.9713,2.9777,2.9796,2.9836,2.9855,2.9847,2.9931,2.9917,2.9892,2.9848,2.993,2.9962,2.9975,2.98,2.9799,2.9798,2.9797,0,0,2.9604,2.9639,2.9654,2.9671,2.9701,2.9737,2.9789,2.9829,2.9854,2.9882,2.9925,2.9984,2.9962,2.9984,2.9978,3.0015,3.0096,2.9986,2.9986,3.0005,3.0189,3.0207,3.0222,3.0084,3.0086,3.0088,3.0187,0,2.97,2.9791,2.9787,2.9873,2.9915,2.9892,2.9938,2.9961,2.9968,3.0004,3.0012,3.0053,3.0021,3.0034,3.007,3.0078,3.0133,3.0072,3.0123,3.0125,3.0116,3.0239,3.0258,3.0349,3.0199,3.0202,3.0203,0,2.9824,2.9857,2.9947,2.9971,2.9988,3.0029,3.0066,3.0101,3.0127,3.0129,3.0155,3.0143,3.0196,3.0152,3.0224,3.0182,3.0203,3.0211,3.0215,3.0218,3.0168,3.0245,3.0379,3.0392,3.0223,3.0222,3.022,0,2.9906,2.9973,3.0035,3.005,3.008,3.0109,3.0123,3.0146,3.0171,3.0203,3.0218,3.0256,3.0277,3.0306,3.0305,3.0273,3.0378,3.0334,3.0381,3.0381,3.0402,3.0401,3.054,3.0419,3.0418,3.0418,3.0418,0,3.0013,3.0069,3.0072,3.011,3.0171,3.0166,3.0227,3.0238,3.0259,3.0299,3.0282,3.0319,3.0316,3.0354,3.0354,3.0413,3.0423,3.0425,3.0424,3.0426,3.0426,3.0439,3.0432,3.0422,3.0421,3.042,3.042,0,3.0114,3.0118,3.0184,3.0207,3.0214,3.0259,3.0278,3.0314,3.032,3.037,3.0382,3.039,3.0434,3.0436,3.0487,3.0486,3.0558,3.0551,3.0549,3.0548,3.0594,3.0589,3.0745,3.0765,3.0632,3.0633,3.0634,0,3.0181,3.0223,3.0251,3.0277,3.0292,3.0333,3.0358,3.0356,3.0382,3.0416,3.0448,3.049,3.0523,3.0594,3.0605,3.0643,3.0635,3.0688,3.0641,3.0641,3.0635,3.0632,3.0635,3.0696,3.0698,3.0699,3.07,0,3.03,3.0301,3.0337,3.0375,3.0405,3.0435,3.0463,3.0484,3.0485,3.0516,3.056,3.0586,3.0638,3.068,3.0717,3.0731,3.0716,3.0715,3.0728,3.0729,3.0726,3.0727,3.0573,3.0711,3.071,3.0709,3.0708,3.0708,3.0386,3.0422,3.0447,3.0489,3.0509,3.0535,3.057,3.0581,3.0618,3.066,3.0656,3.0705,3.0731,3.0779,3.0797,3.0835,3.0817,3.0835,3.084,3.0844,3.0848,3.0721,3.0842,3.0842,3.0841,3.0841,3.0841,0,3.0502,3.0518,3.0556,3.0595,3.0628,3.0612,3.0641,3.067,3.0713,3.0739,3.0772,3.0823,3.0864,3.0878,3.0918,3.0946,3.094,3.0956,3.0953,3.0956,3.0863,3.0847,3.096,3.096,3.096,3.096,3.096,3.096,3.0567,3.0627,3.0631,3.0701,3.0716,3.0764,3.0783,3.0807,3.0827,3.0885,3.0919,3.0928,3.0949,3.099,3.1026,3.1029,3.1044,3.1063,3.1063,3.0975,3.0963,3.0952,3.0937,3.1067,3.1067,3.1154,3.1155,3.1155]},{"header":{"parameterUnit":"m.s-1","parameterCategory":1,"la1":30.2991,"la2":30.254,"lo1":-89.0895,"lo2":-89.0444,"dy":0.0017,"dx":0.0017,"nx":28,"ny":28,"refTime":"2024-11-22T03:00:00:Z","depth":0,"parameterNumber":3,"parameterNumberName":"V-component_of_WINDS"},"data":[0,0,0,0,0,0,0,0,0,0,0,0,0,0,0,0,0,0,0,0,0,0,0,0,0,0,0,0,0,0,0,0,0,0,0,0,0,0,0,0,0,0,0,0,0,0,0,0,0,0,0,0,0,0,0,0,0,0,-4.9246,-4.9249,0,-4.9489,-4.9492,-4.9495,-4.9476,-4.9473,-4.9469,-4.9466,-4.9715,-4.9724,-4.9734,0,0,0,0,0,0,0,0,0,0,0,0,0,-4.8767,-4.8776,-4.9246,-4.9249,-4.9252,-4.9489,-4.9492,-4.9495,-4.9477,-4.9473,-4.9468,-4.9464,-4.9711,-4.9723,-4.9735,0,0,0,0,0,0,0,0,0,0,0,0,0,-4.8989,-4.8779,-4.9245,-4.9271,-4.9276,-4.9488,-4.9492,-4.9496,-4.9478,-4.9472,-4.9467,-4.9462,-4.9707,-4.9722,-4.9737,-4.9938,0,0,-4.9783,-4.9789,0,0,0,0,0,0,0,0,-4.8977,-4.9007,-4.9265,-4.927,-4.9276,-4.9447,-4.9414,-4.9644,-4.9479,-4.9401,-4.9466,-4.9459,-4.963,-4.9651,-4.9708,-4.995,-4.9961,-4.9784,-4.9793,-4.98,-4.9804,0,0,0,0,0,0,0,-4.8961,-4.8996,-4.9342,-4.9268,-4.9275,-4.9271,-4.9297,-4.9458,-4.9543,-4.9408,-4.9407,-4.9436,-4.9632,-4.9694,-4.9714,-4.9964,-4.9784,-4.9797,-4.9806,-4.9812,-5.0385,-5.0391,0,0,0,0,0,0,-4.894,-4.8984,-4.9334,-4.9349,-4.911,-4.9284,-4.9313,-4.9397,-4.9541,-4.9558,-4.944,-4.9434,-4.9671,-4.9697,-4.9723,-4.997,-4.9799,-4.9813,-4.9822,-5.0379,-5.0387,-5.0393,0,0,0,0,0,0,-4.893,-4.8971,-4.9325,-4.9167,-4.9211,-4.9298,-4.9393,-4.9405,-4.9467,-4.9566,-4.9581,-4.9488,-4.9668,-4.9702,-4.9885,-4.9978,-4.982,-4.9834,-5.0372,-5.0381,-5.039,-5.0465,0,0,0,0,0,0,-4.8916,-4.8968,-4.9045,-4.9168,-4.922,-4.9483,-4.9399,-4.9414,-4.9493,-4.9487,-4.9615,-4.9631,-4.9666,-4.9863,-4.99,-4.9996,-4.9846,-5.0364,-5.0376,-5.0387,-5.0454,-5.0475,-5.0493,0,0,0,0,0,-4.8899,-4.9056,-4.9049,-4.9092,-4.9318,-4.9488,-4.9518,-4.9555,-4.9501,-4.9579,-4.9643,-4.9627,-4.9962,-4.9882,-4.9924,-5.0025,-5.0358,-5.0373,-5.0386,-5.0445,-5.0471,-5.0493,0,0,0,0,0,0,-4.8942,-4.9073,-4.9066,-4.9268,-4.9367,-4.9485,-4.9586,-4.9581,-4.9698,-4.9688,-4.9729,-4.9758,-4.9943,-5.0002,-4.9911,-5.0229,-5.0153,-5.0176,-5.0184,-5.0209,-5.0228,-5.021,-4.9858,0,0,0,0,0,-4.8975,-4.9102,-4.9209,-4.9377,-4.9427,-4.9498,-4.9573,-4.9594,-4.9698,-4.974,-4.9817,-4.9919,-5.0047,-5.0131,-5.0254,-5.0462,-5.049,-5.0553,-5.0572,-5.0588,-5.0608,-5.0723,-5.0753,-5.0439,-5.0439,-5.0439,0,0,-4.9044,-4.9131,-4.9209,-4.9388,-4.9467,-4.9598,-4.9533,-4.9675,-4.9773,-4.9761,-4.994,-5.0,-5.0117,-5.0314,-5.0404,-5.0369,-5.07,-5.0606,-5.0617,-5.0629,-5.0741,-5.077,-5.0797,-5.0449,-5.0447,-5.0446,0,0,-4.9238,-4.9316,-4.9465,-4.9546,-4.9666,-4.9713,-4.9748,-4.9867,-4.9907,-5.0087,-5.0081,-5.0198,-5.0418,-5.0502,-5.0573,-5.08,-5.079,-5.0838,-5.0941,-5.1053,-5.1078,-5.11,-5.1183,-5.1211,-5.0858,-5.0858,-5.0858,0,-4.9309,-4.9506,-4.9542,-4.9685,-4.9765,-4.976,-4.9912,-4.9988,-5.0143,-5.0199,-5.0156,-5.0433,-5.0511,-5.0729,-5.0784,-5.0841,-5.0884,-5.0825,-5.1072,-5.1094,-5.1115,-5.1194,-5.1225,-5.0863,-5.0862,-5.0862,-5.0861,0,-4.9588,-4.9725,-4.9831,-4.9981,-5.0072,-5.0219,-5.0278,-5.0365,-5.0378,-5.0428,-5.0612,-5.0706,-5.0849,-5.0901,-5.0914,-5.1121,-5.1096,-5.1062,-5.0987,-5.115,-5.1225,-5.1255,-5.0871,-5.0869,-5.0867,-5.0866,0,0,-4.9817,-4.9985,-5.0023,-5.0092,-5.0225,-5.0332,-5.0478,-5.0618,-5.0694,-5.0801,-5.0926,-5.1112,-5.1082,-5.1163,-5.1186,-5.1284,-5.1459,-5.1239,-5.1242,-5.1278,-5.1695,-5.172,-5.1755,-5.1453,-5.1459,-5.1463,-5.1685,0,-5.0025,-5.0285,-5.0322,-5.0552,-5.068,-5.0677,-5.0805,-5.0901,-5.0952,-5.1069,-5.1125,-5.1257,-5.1207,-5.1256,-5.1353,-5.1417,-5.1544,-5.1402,-5.1571,-5.1576,-5.1543,-5.1794,-5.1821,-5.2026,-5.1715,-5.172,-5.1723,0,-5.0303,-5.0418,-5.0661,-5.0778,-5.0833,-5.0947,-5.1079,-5.119,-5.1298,-5.1329,-5.142,-5.143,-5.1583,-5.15,-5.1712,-5.1614,-5.1685,-5.1727,-5.1736,-5.1755,-5.1661,-5.182,-5.2092,-5.2124,-5.177,-5.1766,-5.1763,0,-5.0447,-5.0663,-5.0836,-5.0895,-5.1035,-5.1116,-5.1178,-5.1281,-5.1363,-5.1478,-5.1532,-5.1663,-5.1736,-5.1837,-5.1883,-5.1818,-5.2093,-5.2013,-5.2123,-5.2122,-5.2182,-5.2178,-5.2471,-5.2225,-5.2225,-5.2224,-5.2224,0,-5.0677,-5.0827,-5.0903,-5.101,-5.1177,-5.1218,-5.1383,-5.1442,-5.1534,-5.1653,-5.1659,-5.177,-5.1823,-5.1943,-5.198,-5.215,-5.2182,-5.2212,-5.222,-5.2213,-5.2209,-5.2261,-5.2249,-5.2232,-5.2231,-5.2229,-5.2228,0,-5.0867,-5.0925,-5.1114,-5.1231,-5.1264,-5.1382,-5.1483,-5.1587,-5.1637,-5.1787,-5.1825,-5.1904,-5.2046,-5.2101,-5.2274,-5.2298,-5.2496,-5.2492,-5.2459,-5.2462,-5.257,-5.256,-5.2908,-5.2956,-5.2676,-5.2679,-5.2681,0,-5.1011,-5.1126,-5.1255,-5.1335,-5.14,-5.1529,-5.1613,-5.1657,-5.1745,-5.1878,-5.1966,-5.2107,-5.2223,-5.2449,-5.2522,-5.2655,-5.2655,-5.2768,-5.2675,-5.2664,-5.2659,-5.2653,-5.2665,-5.2786,-5.2789,-5.2791,-5.2793,0,-5.1261,-5.1284,-5.1404,-5.1536,-5.1636,-5.1742,-5.1844,-5.191,-5.197,-5.2068,-5.2213,-5.2302,-5.2479,-5.262,-5.2756,-5.282,-5.2818,-5.2821,-5.2854,-5.2848,-5.2826,-5.2841,-5.2508,-5.2813,-5.2811,-5.281,-5.2809,-5.2808,-5.1434,-5.1536,-5.1644,-5.1778,-5.186,-5.1956,-5.206,-5.2124,-5.2245,-5.2393,-5.2411,-5.2567,-5.2674,-5.2857,-5.2927,-5.305,-5.302,-5.3067,-5.308,-5.3091,-5.31,-5.2804,-5.3075,-5.3074,-5.3074,-5.3073,-5.3073,0,-5.1686,-5.1755,-5.1878,-5.2022,-5.2128,-5.2115,-5.2228,-5.2318,-5.2455,-5.2555,-5.2669,-5.2836,-5.2972,-5.3056,-5.3194,-5.3276,-5.3278,-5.3311,-5.3306,-5.3321,-5.3117,-5.3076,-5.3307,-5.3307,-5.3307,-5.3307,-5.3307,-5.3307,-5.1829,-5.2002,-5.2038,-5.2252,-5.232,-5.2473,-5.2539,-5.2628,-5.2708,-5.2894,-5.3008,-5.3061,-5.3155,-5.33,-5.3425,-5.3446,-5.3497,-5.3532,-5.3552,-5.336,-5.3336,-5.3313,-5.3274,-5.3543,-5.3543,-5.3746,-5.3748,-5.3749]}]]